Time,TemperatureF,DewpointF,PressureIn,WindDirection,WindDirectionDegrees,WindSpeedMPH,WindSpeedGustMPH,Humidity,HourlyPrecipIn,Conditions,Clouds,dailyrainin,SolarRadiationWatts/m^2,SoftwareType,DateUTC
2013-01-15 00:01:00,65.8,64.9,29.84,East,94,1.0,2.0,97,0.01,RA,SCT,0.00,0.0,WeatherDisplay:10.37,2013-01-15 10:01:00,
2013-01-15 00:11:00,65.8,64.9,29.84,NNW,332,1.0,4.0,97,0.00,OVC,SCT,0.00,0.0,WeatherDisplay:10.37,2013-01-15 10:11:00,
2013-01-15 00:21:00,65.8,64.9,29.84,NNW,334,0.0,3.0,97,0.01,RA,SCT,0.01,0.0,WeatherDisplay:10.37,2013-01-15 10:21:00,
2013-01-15 00:31:00,65.7,64.8,29.84,NNW,348,1.0,4.0,97,0.00,OVC,SCT,0.01,0.0,WeatherDisplay:10.37,2013-01-15 10:31:00,
2013-01-15 00:41:00,65.4,64.2,29.84,NW,309,1.0,6.0,96,0.01,-RA,SCT,0.02,0.0,WeatherDisplay:10.37,2013-01-15 10:41:00,
2013-01-15 00:51:00,65.1,63.9,29.84,NW,322,3.0,8.0,96,0.04,-RA,SCT,0.06,0.0,WeatherDisplay:10.37,2013-01-15 10:51:00,
2013-01-15 01:01:00,64.7,63.6,29.83,NW,309,1.0,6.0,96,0.01,-RA,SCT,0.07,0.0,WeatherDisplay:10.37,2013-01-15 11:01:00,
2013-01-15 01:11:00,64.7,63.5,29.83,NW,326,1.0,5.0,96,0.00,OVC,SCT,0.07,0.0,WeatherDisplay:10.37,2013-01-15 11:11:00,
2013-01-15 01:21:00,64.6,63.7,29.84,NW,324,1.0,6.0,97,0.00,OVC,SCT,0.07,0.0,WeatherDisplay:10.37,2013-01-15 11:21:00,
2013-01-15 01:31:00,64.5,63.6,29.83,NNW,345,0.0,6.0,97,0.03,RA,SCT,0.10,0.0,WeatherDisplay:10.37,2013-01-15 11:31:00,
2013-01-15 01:41:00,64.4,63.5,29.83,NNW,344,0.0,2.0,97,0.01,RA,SCT,0.11,0.0,WeatherDisplay:10.37,2013-01-15 11:41:00,
2013-01-15 01:51:00,64.4,63.5,29.84,NNW,333,0.0,2.0,97,0.00,OVC,SCT,0.11,0.0,WeatherDisplay:10.37,2013-01-15 11:51:00,
2013-01-15 02:01:00,64.4,63.5,29.83,NNW,339,1.0,4.0,97,0.00,OVC,SCT,0.11,0.0,WeatherDisplay:10.37,2013-01-15 12:01:00,
2013-01-15 02:11:00,64.4,63.5,29.83,NNW,335,1.0,4.0,97,0.01,RA,SCT,0.12,0.0,WeatherDisplay:10.37,2013-01-15 12:11:00,
2013-01-15 02:21:00,64.3,63.5,29.83,NW,325,5.0,6.0,97,0.00,OVC,SCT,0.12,0.0,WeatherDisplay:10.37,2013-01-15 12:21:00,
2013-01-15 02:31:00,64.3,63.4,29.83,NW,324,0.0,6.0,97,0.00,OVC,SCT,0.12,0.0,WeatherDisplay:10.37,2013-01-15 12:31:00,
2013-01-15 02:41:00,64.3,63.4,29.83,NNW,330,0.0,4.0,97,0.00,OVC,SCT,0.12,0.0,WeatherDisplay:10.37,2013-01-15 12:41:00,
2013-01-15 02:51:00,64.3,63.4,29.83,NNW,330,1.0,3.0,97,0.00,OVC,SCT,0.12,0.0,WeatherDisplay:10.37,2013-01-15 12:51:00,
2013-01-15 03:01:00,64.4,63.5,29.83,NW,321,1.0,4.0,97,0.01,RA,SCT,0.13,0.0,WeatherDisplay:10.37,2013-01-15 13:01:00,
2013-01-15 03:11:00,64.4,63.5,29.83,NW,320,0.0,3.0,97,0.01,RA,SCT,0.14,0.0,WeatherDisplay:10.37,2013-01-15 13:11:00,
2013-01-15 03:21:00,64.2,63.3,29.83,NW,320,0.0,0.0,97,0.00,-RA,SCT,0.14,0.0,WeatherDisplay:10.37,2013-01-15 13:21:00,
2013-01-15 03:31:00,64.2,63.3,29.82,NW,320,0.0,1.0,97,0.00,-RA,SCT,0.14,0.0,WeatherDisplay:10.37,2013-01-15 13:31:00,
2013-01-15 03:41:00,64.1,63.2,29.82,NW,320,0.0,1.0,97,0.00,-RA,SCT,0.14,0.0,WeatherDisplay:10.37,2013-01-15 13:41:00,
2013-01-15 03:51:00,63.9,63.0,29.82,NW,322,0.0,1.0,97,0.00,-RA,SCT,0.14,0.0,WeatherDisplay:10.37,2013-01-15 13:51:00,
2013-01-15 04:01:00,63.8,62.9,29.82,NW,325,0.0,0.0,97,0.00,-RA,SCT,0.14,0.0,WeatherDisplay:10.37,2013-01-15 14:01:00,
2013-01-15 04:11:00,63.8,62.9,29.82,NW,325,0.0,0.0,97,0.00,-RA,SCT,0.14,0.0,WeatherDisplay:10.37,2013-01-15 14:11:00,
2013-01-15 04:21:00,63.7,62.8,29.82,NW,325,0.0,1.0,97,0.00,-RA,SCT,0.14,0.0,WeatherDisplay:10.37,2013-01-15 14:21:00,
2013-01-15 04:31:00,63.6,62.7,29.82,North,11,0.0,1.0,97,0.00,-RA,SCT,0.14,0.0,WeatherDisplay:10.37,2013-01-15 14:31:00,
2013-01-15 04:41:00,63.5,62.6,29.82,NNE,19,0.0,2.0,97,0.00,BKN,SCT,0.14,0.0,WeatherDisplay:10.37,2013-01-15 14:41:00,
2013-01-15 04:51:00,63.5,62.6,29.83,NNE,19,0.0,0.0,97,0.00,BKN,SCT,0.14,0.0,WeatherDisplay:10.37,2013-01-15 14:51:00,
2013-01-15 05:01:00,63.6,62.7,29.83,NNE,19,0.0,1.0,97,0.00,BKN,SCT,0.14,0.0,WeatherDisplay:10.37,2013-01-15 15:01:00,
2013-01-15 05:11:00,63.6,62.7,29.83,East,88,0.0,3.0,97,0.00,OVC,SCT,0.14,0.0,WeatherDisplay:10.37,2013-01-15 15:11:00,
2013-01-15 05:21:00,63.6,62.7,29.83,East,88,0.0,1.0,97,0.00,OVC,SCT,0.14,0.0,WeatherDisplay:10.37,2013-01-15 15:21:00,
2013-01-15 05:31:00,63.6,62.7,29.83,East,88,0.0,3.0,97,0.00,OVC,SCT,0.14,0.0,WeatherDisplay:10.37,2013-01-15 15:31:00,
2013-01-15 05:41:00,63.5,62.6,29.84,East,81,0.0,3.0,97,0.00,OVC,SCT,0.14,0.0,WeatherDisplay:10.37,2013-01-15 15:41:00,
2013-01-15 05:51:00,63.6,62.7,29.84,ENE,74,0.0,3.0,97,0.00,OVC,SCT,0.14,0.0,WeatherDisplay:10.37,2013-01-15 15:51:00,
2013-01-15 06:01:00,63.7,62.8,29.85,ENE,70,1.0,3.0,97,0.00,OVC,SCT,0.14,0.0,WeatherDisplay:10.37,2013-01-15 16:01:00,
2013-01-15 06:11:00,63.8,63.0,29.84,ENE,67,0.0,3.0,97,0.00,OVC,SCT,0.14,0.0,WeatherDisplay:10.37,2013-01-15 16:11:00,
2013-01-15 06:21:00,63.9,63.0,29.85,ENE,67,0.0,3.0,97,0.00,OVC,SCT,0.14,0.0,WeatherDisplay:10.37,2013-01-15 16:21:00,
2013-01-15 06:31:00,63.9,63.0,29.85,ENE,67,0.0,1.0,97,0.00,OVC,SCT,0.14,0.0,WeatherDisplay:10.37,2013-01-15 16:31:00,
2013-01-15 06:41:00,63.9,63.0,29.84,ENE,67,0.0,0.0,97,0.00,OVC,SCT,0.14,0.0,WeatherDisplay:10.37,2013-01-15 16:41:00,
2013-01-15 06:51:00,63.9,63.0,29.85,ENE,67,0.0,0.0,97,0.00,OVC,SCT,0.14,0.0,WeatherDisplay:10.37,2013-01-15 16:51:00,
2013-01-15 07:01:00,63.8,63.0,29.85,ENE,67,0.0,1.0,97,0.00,OVC,SCT,0.14,0.0,WeatherDisplay:10.37,2013-01-15 17:01:00,
2013-01-15 07:11:00,63.8,62.9,29.85,ENE,67,0.0,1.0,97,0.00,SCT,SCT,0.14,2.2,WeatherDisplay:10.37,2013-01-15 17:11:00,
2013-01-15 07:21:00,63.8,62.9,29.85,ENE,70,0.0,2.0,97,0.00,SCT,SCT,0.14,5.2,WeatherDisplay:10.37,2013-01-15 17:21:00,
2013-01-15 07:31:00,63.8,62.9,29.85,ENE,71,0.0,2.0,97,0.00,SCT,SCT,0.14,19.8,WeatherDisplay:10.37,2013-01-15 17:31:00,
2013-01-15 07:41:00,63.8,62.6,29.85,ENE,71,0.0,2.0,96,0.00,SCT,SCT,0.14,14.7,WeatherDisplay:10.37,2013-01-15 17:41:00,
2013-01-15 07:51:00,63.8,62.6,29.85,ENE,71,1.0,4.0,96,0.00,BKN,SCT,0.14,12.5,WeatherDisplay:10.37,2013-01-15 17:51:00,
2013-01-15 08:01:00,63.8,62.6,29.85,NE,55,0.0,5.0,96,0.00,BKN,SCT,0.14,19.0,WeatherDisplay:10.37,2013-01-15 18:01:00,
2013-01-15 08:11:00,64.0,62.8,29.86,NE,54,0.0,3.0,96,0.00,SCT,SCT,0.14,41.0,WeatherDisplay:10.37,2013-01-15 18:11:00,
2013-01-15 08:21:00,64.3,63.1,29.86,NE,54,0.0,1.0,96,0.00,SCT,SCT,0.14,60.0,WeatherDisplay:10.37,2013-01-15 18:21:00,
2013-01-15 08:31:00,64.7,63.5,29.87,NE,54,0.0,3.0,96,0.01,RA,SCT,0.15,44.4,WeatherDisplay:10.37,2013-01-15 18:31:00,
2013-01-15 08:41:00,64.9,63.4,29.87,NE,37,1.0,3.0,95,0.00,SCT,SCT,0.15,62.1,WeatherDisplay:10.37,2013-01-15 18:41:00,
2013-01-15 08:51:00,65.2,63.4,29.87,East,90,1.0,3.0,94,0.00,SCT,SCT,0.15,124.3,WeatherDisplay:10.37,2013-01-15 18:51:00,
2013-01-15 09:01:00,65.8,64.0,29.87,ESE,104,0.0,1.0,94,0.00,SCT,SCT,0.15,344.3,WeatherDisplay:10.37,2013-01-15 19:01:00,
2013-01-15 09:11:00,67.0,64.6,29.87,East,101,2.0,4.0,92,0.00,SCT,SCT,0.15,191.6,WeatherDisplay:10.37,2013-01-15 19:11:00,
2013-01-15 09:21:00,67.7,65.3,29.87,ENE,67,2.0,5.0,92,0.00,SCT,SCT,0.15,105.3,WeatherDisplay:10.37,2013-01-15 19:21:00,
2013-01-15 09:31:00,67.1,64.0,29.87,NNW,338,1.0,6.0,90,0.00,SCT,SCT,0.15,60.0,WeatherDisplay:10.37,2013-01-15 19:31:00,
2013-01-15 09:41:00,66.7,64.0,29.87,North,360,0.0,3.0,91,0.00,SCT,SCT,0.15,90.6,WeatherDisplay:10.37,2013-01-15 19:41:00,
2013-01-15 09:51:00,66.8,64.8,29.88,North,9,1.0,4.0,93,0.00,SCT,SCT,0.15,173.9,WeatherDisplay:10.37,2013-01-15 19:51:00,
2013-01-15 10:01:00,67.4,65.0,29.88,NNE,14,2.0,5.0,92,0.00,SCT,SCT,0.15,227.4,WeatherDisplay:10.37,2013-01-15 20:01:00,
2013-01-15 10:11:00,68.0,64.6,29.88,NNE,25,3.0,7.0,89,0.00,SCT,SCT,0.15,168.7,WeatherDisplay:10.37,2013-01-15 20:11:00,
2013-01-15 10:21:00,68.5,64.8,29.88,NE,38,0.0,6.0,88,0.00,SCT,SCT,0.15,204.5,WeatherDisplay:10.37,2013-01-15 20:21:00,
2013-01-15 10:31:00,69.1,65.4,29.87,North,8,2.0,5.0,88,0.00,SCT,SCT,0.15,191.6,WeatherDisplay:10.37,2013-01-15 20:31:00,
2013-01-15 10:41:00,69.5,65.1,29.87,NNE,12,1.0,4.0,86,0.00,SCT,SCT,0.15,334.0,WeatherDisplay:10.37,2013-01-15 20:41:00,
2013-01-15 10:51:00,70.5,65.1,29.86,ENE,64,0.0,5.0,83,0.00,SCT,SCT,0.15,215.8,WeatherDisplay:10.37,2013-01-15 20:51:00,
2013-01-15 11:01:00,70.4,65.7,29.86,NW,315,5.0,7.0,85,0.00,SCT,SCT,0.15,120.0,WeatherDisplay:10.37,2013-01-15 21:01:00,
2013-01-15 11:11:00,69.7,65.4,29.85,NNW,340,3.0,6.0,86,0.00,SCT,SCT,0.15,184.3,WeatherDisplay:10.37,2013-01-15 21:11:00,
2013-01-15 11:21:00,69.3,65.3,29.85,NNW,336,3.0,7.0,87,0.00,SCT,SCT,0.15,285.7,WeatherDisplay:10.37,2013-01-15 21:21:00,
2013-01-15 11:31:00,69.8,65.4,29.85,NNW,344,3.0,7.0,86,0.00,SCT,SCT,0.15,150.6,WeatherDisplay:10.37,2013-01-15 21:31:00,
2013-01-15 11:41:00,69.3,65.3,29.85,North,358,0.0,7.0,87,0.00,SCT,SCT,0.15,108.3,WeatherDisplay:10.37,2013-01-15 21:41:00,
2013-01-15 11:51:00,68.7,64.3,29.84,NNE,18,2.0,7.0,86,0.00,SCT,SCT,0.15,116.1,WeatherDisplay:10.37,2013-01-15 21:51:00,
2013-01-15 12:01:00,68.6,64.9,29.83,NNE,29,1.0,7.0,88,0.00,SCT,SCT,0.15,94.9,WeatherDisplay:10.37,2013-01-15 22:01:00,
2013-01-15 12:31:00,68.1,64.4,29.82,NE,51,1.0,5.0,88,0.00,SCT,SCT,0.15,138.9,WeatherDisplay:10.37,2013-01-15 22:31:00,
2013-01-15 12:41:00,68.7,64.3,29.82,NE,50,0.0,2.0,86,0.00,SCT,SCT,0.15,152.8,WeatherDisplay:10.37,2013-01-15 22:41:00,
2013-01-15 12:51:00,69.3,64.9,29.82,North,350,0.0,3.0,86,0.00,SCT,SCT,0.15,160.1,WeatherDisplay:10.37,2013-01-15 22:51:00,
2013-01-15 13:01:00,69.6,65.2,29.81,North,2,0.0,4.0,86,0.00,SCT,SCT,0.15,116.1,WeatherDisplay:10.37,2013-01-15 23:01:00,
2013-01-15 13:11:00,70.1,65.3,29.81,NNW,331,1.0,6.0,85,0.00,SCT,SCT,0.15,125.1,WeatherDisplay:10.37,2013-01-15 23:11:00,
2013-01-15 13:21:00,70.3,65.2,29.81,NW,324,6.0,7.0,84,0.00,SCT,SCT,0.15,75.9,WeatherDisplay:10.37,2013-01-15 23:21:00,
2013-01-15 13:31:00,69.7,65.0,29.80,North,355,3.0,6.0,85,0.00,SCT,SCT,0.15,98.0,WeatherDisplay:10.37,2013-01-15 23:31:00,
2013-01-15 13:41:00,69.4,65.0,29.80,North,5,3.0,6.0,86,0.00,SCT,SCT,0.15,82.0,WeatherDisplay:10.37,2013-01-15 23:41:00,
2013-01-15 13:51:00,69.2,64.8,29.80,NNE,17,3.0,7.0,86,0.00,SCT,SCT,0.15,89.3,WeatherDisplay:10.37,2013-01-15 23:51:00,
2013-01-15 14:01:00,69.0,64.6,29.80,NNE,31,5.0,7.0,86,0.00,SCT,SCT,0.15,132.9,WeatherDisplay:10.37,2013-01-16 00:01:00,
2013-01-15 14:11:00,69.3,64.9,29.80,NE,45,1.0,8.0,86,0.00,SCT,SCT,0.15,300.3,WeatherDisplay:10.37,2013-01-16 00:11:00,
2013-01-15 14:21:00,70.6,65.2,29.80,NE,46,3.0,7.0,83,0.00,SCT,SCT,0.15,214.9,WeatherDisplay:10.37,2013-01-16 00:21:00,
2013-01-15 14:31:00,70.8,65.3,29.80,NE,50,5.0,8.0,83,0.00,SCT,SCT,0.15,170.4,WeatherDisplay:10.37,2013-01-16 00:31:00,
2013-01-15 14:41:00,71.0,65.9,29.80,NNE,26,5.0,10.0,84,0.00,SCT,SCT,0.15,149.7,WeatherDisplay:10.37,2013-01-16 00:41:00,
2013-01-15 14:51:00,71.1,65.0,29.80,ENE,67,5.0,8.0,81,0.00,SCT,SCT,0.15,121.3,WeatherDisplay:10.37,2013-01-16 00:51:00,
2013-01-15 15:01:00,70.5,65.1,29.80,ENE,64,5.0,7.0,83,0.00,SCT,SCT,0.15,174.8,WeatherDisplay:10.37,2013-01-16 01:01:00,
2013-01-15 15:11:00,70.6,64.8,29.80,ENE,65,2.0,8.0,82,0.00,SCT,SCT,0.15,111.8,WeatherDisplay:10.37,2013-01-16 01:11:00,
2013-01-15 15:21:00,70.5,65.1,29.80,NE,39,5.0,9.0,83,0.00,SCT,SCT,0.15,142.4,WeatherDisplay:10.37,2013-01-16 01:21:00,
2013-01-15 15:31:00,70.4,65.3,29.80,NE,41,6.0,9.0,84,0.00,SCT,SCT,0.15,247.7,WeatherDisplay:10.37,2013-01-16 01:31:00,
2013-01-15 15:41:00,70.3,64.5,29.80,ENE,60,3.0,8.0,82,0.00,SCT,SCT,0.15,204.5,WeatherDisplay:10.37,2013-01-16 01:41:00,
2013-01-15 15:51:00,70.5,65.4,29.80,ENE,71,2.0,8.0,84,0.00,SCT,SCT,0.15,154.9,WeatherDisplay:10.37,2013-01-16 01:51:00,
2013-01-15 16:01:00,70.6,65.2,29.81,NE,53,2.0,8.0,83,0.00,SCT,SCT,0.15,157.1,WeatherDisplay:10.37,2013-01-16 02:01:00,
2013-01-15 16:11:00,70.4,65.4,29.81,NE,55,2.0,8.0,84,0.00,SCT,SCT,0.15,347.8,WeatherDisplay:10.37,2013-01-16 02:11:00,
2013-01-15 16:21:00,71.0,64.9,29.81,ENE,57,6.0,8.0,81,0.00,SCT,SCT,0.15,138.9,WeatherDisplay:10.37,2013-01-16 02:21:00,
2013-01-15 16:31:00,70.3,64.5,29.81,ENE,72,3.0,8.0,82,0.00,SCT,SCT,0.15,73.8,WeatherDisplay:10.37,2013-01-16 02:31:00,
2013-01-15 16:41:00,69.6,64.5,29.81,ENE,67,1.0,6.0,84,0.00,SCT,SCT,0.15,60.0,WeatherDisplay:10.37,2013-01-16 02:41:00,
2013-01-15 16:51:00,69.4,64.4,29.81,NE,55,2.0,7.0,84,0.00,SCT,SCT,0.15,36.7,WeatherDisplay:10.37,2013-01-16 02:51:00,
2013-01-15 17:01:00,68.7,64.3,29.82,NE,48,5.0,7.0,86,0.00,SCT,SCT,0.15,23.3,WeatherDisplay:10.37,2013-01-16 03:01:00,
2013-01-15 17:11:00,68.1,63.8,29.83,NE,48,1.0,5.0,86,0.00,BKN,SCT,0.15,26.3,WeatherDisplay:10.37,2013-01-16 03:11:00,
2013-01-15 17:21:00,67.7,63.7,29.83,NE,37,0.0,6.0,87,0.00,BKN,SCT,0.15,11.7,WeatherDisplay:10.37,2013-01-16 03:21:00,
2013-01-15 17:31:00,67.4,64.0,29.83,NNE,24,2.0,5.0,89,0.00,BKN,SCT,0.15,8.6,WeatherDisplay:10.37,2013-01-16 03:31:00,
2013-01-15 17:41:00,67.0,64.0,29.83,NNE,19,1.0,6.0,90,0.00,BKN,SCT,0.15,5.2,WeatherDisplay:10.37,2013-01-16 03:41:00,
2013-01-15 17:51:00,66.6,63.9,29.83,NNE,31,1.0,3.0,91,0.00,BKN,SCT,0.15,10.4,WeatherDisplay:10.37,2013-01-16 03:51:00,
2013-01-15 18:01:00,66.3,63.9,29.83,NE,43,1.0,5.0,92,0.00,BKN,SCT,0.15,3.0,WeatherDisplay:10.37,2013-01-16 04:01:00,
2013-01-15 18:11:00,65.9,63.2,29.83,NE,53,1.0,7.0,91,0.00,SCT,SCT,0.15,0.0,WeatherDisplay:10.37,2013-01-16 04:11:00,
2013-01-15 18:21:00,65.4,63.0,29.84,ENE,76,2.0,7.0,92,0.00,SCT,SCT,0.15,0.0,WeatherDisplay:10.37,2013-01-16 04:21:00,
2013-01-15 18:31:00,65.2,63.1,29.84,East,97,0.0,4.0,93,0.00,SCT,SCT,0.15,0.0,WeatherDisplay:10.37,2013-01-16 04:31:00,
2013-01-15 18:41:00,65.1,63.0,29.85,East,95,0.0,3.0,93,0.00,SCT,SCT,0.15,0.0,WeatherDisplay:10.37,2013-01-16 04:41:00,
2013-01-15 18:51:00,65.0,62.9,29.86,East,95,1.0,4.0,93,0.00,SCT,SCT,0.15,0.0,WeatherDisplay:10.37,2013-01-16 04:51:00,
2013-01-15 19:11:00,65.1,63.0,29.87,ENE,59,1.0,6.0,93,0.00,SCT,SCT,0.15,0.0,WeatherDisplay:10.37,2013-01-16 05:11:00,
2013-01-15 19:21:00,65.0,63.0,29.87,NE,49,0.0,5.0,93,0.00,BKN,SCT,0.15,0.0,WeatherDisplay:10.37,2013-01-16 05:21:00,
2013-01-15 19:31:00,65.1,63.0,29.88,NE,49,0.0,2.0,93,0.00,BKN,SCT,0.15,0.0,WeatherDisplay:10.37,2013-01-16 05:31:00,
2013-01-15 19:41:00,65.1,63.0,29.88,NE,41,0.0,6.0,93,0.00,BKN,SCT,0.15,0.0,WeatherDisplay:10.37,2013-01-16 05:41:00,
2013-01-15 19:51:00,65.1,63.0,29.89,NE,48,0.0,3.0,93,0.00,BKN,SCT,0.15,0.0,WeatherDisplay:10.37,2013-01-16 05:51:00,
2013-01-15 20:01:00,65.1,63.0,29.89,ENE,57,0.0,2.0,93,0.00,BKN,SCT,0.15,0.0,WeatherDisplay:10.37,2013-01-16 06:01:00,
2013-01-15 20:11:00,65.0,62.9,29.89,ENE,57,0.0,2.0,93,0.00,SCT,SCT,0.15,0.0,WeatherDisplay:10.37,2013-01-16 06:11:00,
2013-01-15 20:21:00,64.8,62.7,29.89,ENE,57,0.0,1.0,93,0.00,SCT,SCT,0.15,0.0,WeatherDisplay:10.37,2013-01-16 06:21:00,
2013-01-15 20:31:00,64.7,63.0,29.89,ENE,58,0.0,2.0,94,0.00,SCT,SCT,0.15,0.0,WeatherDisplay:10.37,2013-01-16 06:31:00,
2013-01-15 20:41:00,64.6,62.5,29.88,East,80,0.0,3.0,93,0.00,SCT,SCT,0.15,0.0,WeatherDisplay:10.37,2013-01-16 06:41:00,
2013-01-15 20:51:00,64.5,62.7,29.88,East,79,0.0,3.0,94,0.00,SCT,SCT,0.15,0.0,WeatherDisplay:10.37,2013-01-16 06:51:00,
2013-01-15 21:01:00,64.5,62.7,29.88,East,79,0.0,1.0,94,0.00,SCT,SCT,0.15,0.0,WeatherDisplay:10.37,2013-01-16 07:01:00,
2013-01-15 21:11:00,64.4,62.3,29.88,East,79,0.0,1.0,93,0.00,SCT,SCT,0.15,0.0,WeatherDisplay:10.37,2013-01-16 07:11:00,
2013-01-15 21:21:00,64.1,62.0,29.88,East,79,0.0,0.0,93,0.00,SCT,SCT,0.15,0.0,WeatherDisplay:10.37,2013-01-16 07:21:00,
2013-01-15 21:31:00,63.8,61.7,29.87,East,79,0.0,1.0,93,0.00,SCT,SCT,0.15,0.0,WeatherDisplay:10.37,2013-01-16 07:31:00,
2013-01-15 21:41:00,63.5,61.4,29.87,East,79,0.0,1.0,93,0.00,SCT,SCT,0.15,0.0,WeatherDisplay:10.37,2013-01-16 07:41:00,
2013-01-15 21:51:00,63.2,61.1,29.87,East,79,0.0,0.0,93,0.00,SCT,SCT,0.15,0.0,WeatherDisplay:10.37,2013-01-16 07:51:00,
2013-01-15 22:01:00,62.9,60.8,29.87,East,84,1.0,3.0,93,0.00,SCT,SCT,0.15,0.0,WeatherDisplay:10.37,2013-01-16 08:01:00,
2013-01-15 22:11:00,62.4,60.0,29.87,ESE,105,0.0,3.0,92,0.00,SCT,SCT,0.15,0.0,WeatherDisplay:10.37,2013-01-16 08:11:00,
2013-01-15 22:21:00,62.2,59.8,29.87,ESE,104,0.0,3.0,92,0.00,SCT,SCT,0.15,0.0,WeatherDisplay:10.37,2013-01-16 08:21:00,
2013-01-15 22:31:00,62.0,59.0,29.87,ESE,109,0.0,3.0,90,0.00,SCT,SCT,0.15,0.0,WeatherDisplay:10.37,2013-01-16 08:31:00,
2013-01-15 22:41:00,61.7,58.7,29.87,ESE,115,0.0,3.0,90,0.00,SCT,SCT,0.15,0.0,WeatherDisplay:10.37,2013-01-16 08:41:00,
2013-01-15 22:51:00,61.6,58.9,29.87,ESE,104,0.0,3.0,91,0.00,SCT,SCT,0.15,0.0,WeatherDisplay:10.37,2013-01-16 08:51:00,
2013-01-15 23:01:00,61.5,58.8,29.87,ESE,106,1.0,4.0,91,0.00,SCT,SCT,0.15,0.0,WeatherDisplay:10.37,2013-01-16 09:01:00,
2013-01-15 23:11:00,61.4,58.4,29.87,ESE,110,1.0,3.0,90,0.00,SCT,SCT,0.15,0.0,WeatherDisplay:10.37,2013-01-16 09:11:00,
2013-01-15 23:21:00,61.5,58.9,29.87,ESE,110,0.0,1.0,91,0.00,SCT,SCT,0.15,0.0,WeatherDisplay:10.37,2013-01-16 09:21:00,
2013-01-15 23:31:00,61.5,58.5,29.88,ESE,110,1.0,2.0,90,0.00,SCT,SCT,0.15,0.0,WeatherDisplay:10.37,2013-01-16 09:31:00,
2013-01-15 23:41:00,61.4,58.7,29.87,ESE,110,0.0,1.0,91,0.00,SCT,SCT,0.15,0.0,WeatherDisplay:10.37,2013-01-16 09:41:00,
2013-01-15 23:51:00,61.3,58.7,29.87,ESE,110,0.0,2.0,91,0.00,SCT,SCT,0.15,0.0,WeatherDisplay:10.37,2013-01-16 09:51:00,